Overview Statistics Trail Chart Weather Telemetry Raw packets
 

This is the latest recevied weather packets stored in our database for station/object SV9TNF-56. If no packets are shown the sender has not sent any weather packets the latest 10 day(s).

<< 37 38 39 40 41 42 43 >>
Time Temp. Humidity Pressure Rain* Wind** Luminosity Snow
1788407343 25° C 67% 1009.5 hPa 0 mm 17.88 m/s, 264° - -
1788407043 25° C 67% 1009.5 hPa 0 mm 17.88 m/s, 284° - -
1788406743 24.44° C 69% 1009.5 hPa 0 mm 8.05 m/s, 275° - -
1788406443 24.44° C 67% 1009.5 hPa 0 mm 22.8 m/s, 264° - -
1788406143 24.44° C 68% 1009.8 hPa 0 mm 23.69 m/s, 252° - -
1788405843 25° C 68% 1009.5 hPa 0 mm 21.01 m/s, 271° - -
1788405543 25° C 67% 1009.5 hPa 0 mm 10.28 m/s, 348° - -
1788405243 25° C 65% 1009.8 hPa 0 mm 12.96 m/s, 268° - -
1788404942 25° C 66% 1009.8 hPa 0 mm 17.88 m/s, 341° - -
1788404642 24.44° C 66% 1009.8 hPa 0 mm 13.41 m/s, 317° - -
1788404342 24.44° C 68% 1009.5 hPa 0 mm 12.07 m/s, 277° - -
1788404043 25° C 66% 1009.5 hPa 0 mm 14.31 m/s, 265° - -
1788403742 24.44° C 64% 1009.5 hPa 0 mm 21.01 m/s, 329° - -
1788403442 24.44° C 71% 1009.8 hPa 0 mm 16.54 m/s, 306° - -
1788403142 24.44° C 70% 1009.8 hPa 0 mm 21.01 m/s, 227° - -
1788402842 24.44° C 73% 1009.8 hPa 0 mm 11.18 m/s, 6° - -
1788402542 24.44° C 72% 1009.8 hPa 0 mm 10.28 m/s, 300° - -
1788402241 24.44° C 70% 1009.8 hPa 0 mm 8.05 m/s, 296° - -
1788401941 25° C 68% 1009.8 hPa 0 mm 13.41 m/s, 297° - -
1788401641 25° C 64% 1009.8 hPa 0 mm 8.94 m/s, 306° - -
1788401341 25° C 63% 1009.8 hPa 0 mm 10.28 m/s, 288° - -
1788401041 25.56° C 61% 1009.5 hPa 0 mm 18.33 m/s, 252° - -
1788400741 25.56° C 55% 1009.8 hPa 0 mm 24.14 m/s, 292° - -
1788400441 25.56° C 58% 1009.8 hPa 0 mm 22.8 m/s, 288° - -
1788400141 25.56° C 59% 1009.5 hPa 0 mm 17.88 m/s, 282° - -

* Rain latest hour (hover to see other rain measurements)
** Current wind speed in m/s (hover to see current wind gust speed)